| time (UTC) | temp F | wind direction | speed knots | gust knots | rain 1hr in | rain 24hr in | rain mn in | humidity % | barometer mb |
| 20260503055046 | 57 | 0 | 0.0 | 0.0 | 0.00 | 0.16 | 0.00 | 85 | 1013.6 |
| 20260503053044 | 56 | 0 | 0.0 | 0.0 | 0.00 | 0.16 | 0.00 | 89 | 1013.7 |
| 20260503052046 | 56 | 0 | 0.0 | 0.0 | 0.00 | 0.16 | 0.00 | 90 | 1013.6 |
| 20260503051045 | 56 | 0 | 0.0 | 0.0 | 0.00 | 0.16 | 0.00 | 91 | 1013.6 |
| 20260503050044 | 56 | 0 | 0.0 | 0.0 | 0.00 | 0.16 | 0.00 | 91 | 1013.6 |
| 20260503045041 | 57 | 0 | 0.0 | 0.0 | 0.00 | 0.16 | 0.00 | 90 | 1013.5 |
| 20260503044044 | 57 | 0 | 0.0 | 0.0 | 0.00 | 0.16 | 0.00 | 90 | 1013.6 |
| 20260503043043 | 57 | 0 | 0.0 | 0.0 | 0.00 | 0.16 | 0.00 | 91 | 1013.8 |
| 20260503041042 | 57 | 0 | 0.0 | 0.0 | 0.00 | 0.17 | 0.00 | 91 | 1013.9 |
| 20260503040041 | 56 | 0 | 0.0 | 0.0 | 0.00 | 0.17 | 0.00 | 91 | 1013.9 |
| 20260503035044 | 56 | 0 | 0.0 | 0.0 | 0.00 | 0.17 | 0.00 | 91 | 1013.9 |
| 20260503034042 | 56 | 0 | 0.0 | 0.0 | 0.00 | 0.17 | 0.00 | 91 | 1013.9 |
| 20260503032044 | 57 | 0 | 0.0 | 0.0 | 0.00 | 0.17 | 0.00 | 90 | 1013.8 |
| 20260503031043 | 57 | 0 | 0.0 | 0.0 | 0.00 | 0.17 | 0.00 | 90 | 1013.8 |
| 20260503025041 | 57 | 0 | 0.0 | 0.0 | 0.00 | 0.17 | 0.00 | 89 | 1013.9 |
| 20260503023042 | 58 | 0 | 0.0 | 0.0 | 0.00 | 0.17 | 0.00 | 89 | 1014.0 |
| 20260503021044 | 57 | 0 | 0.0 | 0.0 | 0.00 | 0.17 | 0.00 | 90 | 1014.2 |
| 20260503020043 | 57 | 0 | 0.0 | 0.0 | 0.00 | 0.17 | 0.00 | 90 | 1014.3 |
| 20260503015042 | 57 | 0 | 0.0 | 0.0 | 0.00 | 0.17 | 0.00 | 90 | 1014.4 |
| 20260503014044 | 57 | 0 | 0.0 | 0.0 | 0.00 | 0.17 | 0.00 | 91 | 1014.4 |
| 20260503013042 | 57 | 0 | 0.0 | 0.0 | 0.00 | 0.17 | 0.00 | 92 | 1014.4 |
| 20260503012042 | 56 | 0 | 0.0 | 0.0 | 0.00 | 0.17 | 0.00 | 95 | 1014.5 |
| 20260503005043 | 54 | 0 | 0.0 | 0.0 | 0.00 | 0.17 | 0.00 | 10 | 1014.8 |
| 20260503004044 | 53 | 0 | 0.0 | 0.0 | 0.00 | 0.17 | 0.00 | 99 | 1014.9 |
| 20260503003045 | 53 | 0 | 0.0 | 0.0 | 0.00 | 0.17 | 0.00 | 99 | 1014.9 |
| 20260503002045 | 54 | 0 | 0.0 | 0.0 | 0.00 | 0.17 | 0.00 | 99 | 1015.0 |
| 20260503001043 | 54 | 0 | 0.0 | 0.0 | 0.00 | 0.17 | 0.00 | 98 | 1015.1 |
| 20260503000050 | 55 | 0 | 0.0 | 0.0 | 0.00 | 0.17 | 0.00 | 98 | 1015.2 |
| 20260502235046 | 55 | 0 | 0.0 | 0.0 | 0.00 | 0.17 | 0.00 | 99 | 1015.2 |
| 20260502234046 | 55 | 0 | 0.0 | 0.0 | 0.00 | 0.17 | 0.00 | 98 | 1015.2 |
| 20260502232046 | 56 | 0 | 0.0 | 0.0 | 0.00 | 0.17 | 0.00 | 98 | 1015.3 |
| 20260502231045 | 56 | 0 | 0.0 | 0.0 | 0.00 | 0.17 | 0.00 | 98 | 1015.3 |
| 20260502230044 | 56 | 0 | 0.0 | 0.0 | 0.00 | 0.17 | 0.00 | 97 | 1015.4 |
| 20260502225046 | 56 | 0 | 0.0 | 0.0 | 0.00 | 0.17 | 0.00 | 97 | 1015.5 |
| 20260502223047 | 57 | 0 | 0.0 | 0.0 | 0.00 | 0.17 | 0.00 | 98 | 1015.5 |
| 20260502222048 | 57 | 0 | 0.0 | 0.0 | 0.00 | 0.17 | 0.00 | 98 | 1015.5 |
| 20260502221046 | 57 | 0 | 0.0 | 0.0 | 0.00 | 0.17 | 0.00 | 98 | 1015.5 |
| 20260502220047 | 57 | 0 | 0.0 | 0.0 | 0.00 | 0.17 | 0.00 | 98 | 1015.5 |
| 20260502215047 | 57 | 0 | 0.0 | 0.0 | 0.00 | 0.17 | 0.17 | 98 | 1015.5 |
| 20260502214045 | 56 | 0 | 0.0 | 0.0 | 0.00 | 0.17 | 0.17 | 98 | 1015.6 |
| 20260502213051 | 56 | 0 | 0.0 | 0.0 | 0.00 | 0.17 | 0.17 | 98 | 1015.6 |
| 20260502212044 | 56 | 0 | 0.0 | 0.0 | 0.00 | 0.17 | 0.17 | 98 | 1015.7 |
| 20260502211047 | 56 | 0 | 0.0 | 0.0 | 0.00 | 0.17 | 0.17 | 98 | 1015.8 |
| 20260502210049 | 56 | 0 | 0.0 | 0.0 | 0.00 | 0.17 | 0.17 | 98 | 1015.7 |
| 20260502205051 | 56 | 0 | 0.0 | 0.0 | 0.00 | 0.17 | 0.17 | 97 | 1015.7 |
| 20260502204047 | 57 | 0 | 0.0 | 0.0 | 0.00 | 0.17 | 0.17 | 98 | 1015.7 |
| 20260502203048 | 57 | 0 | 0.0 | 0.0 | 0.00 | 0.17 | 0.17 | 97 | 1015.8 |
| 20260502202050 | 57 | 0 | 0.0 | 0.0 | 0.00 | 0.17 | 0.17 | 97 | 1015.8 |
| 20260502201053 | 57 | 0 | 0.0 | 0.0 | 0.00 | 0.17 | 0.17 | 96 | 1015.8 |
| 20260502200048 | 57 | 0 | 0.0 | 0.0 | 0.00 | 0.17 | 0.17 | 95 | 1015.9 |
| 20260502195046 | 58 | 0 | 0.0 | 0.0 | 0.00 | 0.17 | 0.17 | 95 | 1016.0 |
| 20260502194044 | 58 | 0 | 0.0 | 0.0 | 0.12 | 0.17 | 0.17 | 93 | 1015.9 |
| 20260502192048 | 58 | 0 | 0.0 | 0.0 | 0.16 | 0.17 | 0.17 | 93 | 1016.1 |
| 20260502191052 | 58 | 0 | 0.0 | 0.0 | 0.16 | 0.17 | 0.17 | 93 | 1016.1 |
| 20260502190049 | 59 | 0 | 0.0 | 0.0 | 0.16 | 0.17 | 0.17 | 91 | 1016.2 |
| 20260502185046 | 60 | 0 | 0.0 | 0.0 | 0.16 | 0.17 | 0.17 | 87 | 1016.1 |
| 20260502184048 | 62 | 0 | 0.0 | 0.0 | 0.16 | 0.17 | 0.17 | 75 | 1016.1 |
| 20260502164047 | 73 | 0 | 0.0 | 0.0 | 0.00 | 0.01 | 0.01 | 56 | 1015.3 |
| 20260502163046 | 73 | 0 | 0.0 | 0.0 | 0.00 | 0.01 | 0.01 | 55 | 1015.5 |
| 20260502162045 | 73 | 0 | 0.0 | 0.0 | 0.00 | 0.01 | 0.01 | 55 | 1015.7 |
| 20260502161048 | 73 | 0 | 0.0 | 0.0 | 0.00 | 0.01 | 0.01 | 53 | 1015.8 |
| 20260502151046 | 74 | 0 | 0.0 | 0.0 | 0.00 | 0.01 | 0.01 | 54 | 1016.5 |
| 20260502123044 | 71 | 0 | 0.0 | 0.0 | 0.00 | 0.01 | 0.01 | 62 | 1019.0 |
| 20260502122046 | 71 | 0 | 0.0 | 0.0 | 0.00 | 0.01 | 0.01 | 63 | 1019.1 |
| 20260502115041 | 70 | 0 | 0.0 | 0.0 | 0.00 | 0.01 | 0.01 | 63 | 1019.5 |
| 20260502114045 | 70 | 0 | 0.0 | 0.0 | 0.00 | 0.01 | 0.01 | 63 | 1019.7 |
| 20260502112043 | 70 | 0 | 0.0 | 0.0 | 0.00 | 0.01 | 0.01 | 64 | 1019.9 |
| 20260502111046 | 70 | 0 | 0.0 | 0.0 | 0.00 | 0.01 | 0.01 | 64 | 1019.9 |
| 20260502110042 | 69 | 0 | 0.0 | 0.0 | 0.00 | 0.01 | 0.01 | 64 | 1020.0 |
| 20260502105044 | 69 | 0 | 0.0 | 0.0 | 0.00 | 0.01 | 0.01 | 64 | 1020.1 |
| 20260502104046 | 69 | 0 | 0.0 | 0.0 | 0.00 | 0.01 | 0.01 | 64 | 1020.2 |
| 20260502102043 | 69 | 0 | 0.0 | 0.0 | 0.00 | 0.01 | 0.01 | 65 | 1020.3 |
| 20260502071044 | 57 | 0 | 0.0 | 0.0 | 0.00 | 0.01 | 0.01 | 77 | 1021.9 |
| 20260502065046 | 57 | 0 | 0.0 | 0.0 | 0.00 | 0.01 | 0.01 | 75 | 1021.9 |
| 20260502064041 | 58 | 0 | 0.0 | 0.0 | 0.00 | 0.01 | 0.01 | 75 | 1021.8 |
| 20260502063046 | 57 | 0 | 0.0 | 0.0 | 0.00 | 0.01 | 0.01 | 75 | 1021.8 |
| 20260502062042 | 57 | 0 | 0.0 | 0.0 | 0.00 | 0.01 | 0.01 | 75 | 1022.0 |
| 20260502061046 | 57 | 0 | 0.0 | 0.0 | 0.00 | 0.01 | 0.01 | 75 | 1022.0 |
| 20260502060043 | 55 | 0 | 0.0 | 0.0 | 0.00 | 0.01 | 0.01 | 77 | 1022.0 |